Time,TemperatureF,DewpointF,PressureIn,WindDirection,WindDirectionDegrees,WindSpeedMPH,WindSpeedGustMPH,Humidity,HourlyPrecipIn,Conditions,Clouds,dailyrainin,SolarRadiationWatts/m^2,SoftwareType,DateUTC
2013-09-14 00:00:00,57.4,52.3,29.82,ESE,109,1.0,1.0,83,0.00,,,0.00,0,Wunderground v.1.15,2013-09-14 06:00:00,
2013-09-14 00:06:00,57.3,51.9,29.82,ESE,109,1.0,2.0,82,0.00,,,0.00,0,Wunderground v.1.15,2013-09-14 06:06:00,
2013-09-14 00:11:00,57.3,52.2,29.82,ESE,109,0.0,0.0,83,0.00,,,0.00,0,Wunderground v.1.15,2013-09-14 06:11:00,
2013-09-14 00:17:00,57.2,52.1,29.82,ESE,109,1.0,3.0,83,0.00,,,0.00,0,Wunderground v.1.15,2013-09-14 06:17:00,
2013-09-14 00:23:00,57.1,52.0,29.82,ESE,109,1.0,1.0,83,0.00,,,0.00,0,Wunderground v.1.15,2013-09-14 06:23:00,
2013-09-14 00:29:00,57.1,52.0,29.82,ESE,109,0.0,1.0,83,0.00,,,0.00,0,Wunderground v.1.15,2013-09-14 06:29:00,
2013-09-14 00:35:00,57.1,52.3,29.82,ESE,109,1.0,2.0,84,0.00,,,0.00,0,Wunderground v.1.15,2013-09-14 06:35:00,
2013-09-14 00:41:00,57.1,52.3,29.82,ESE,109,1.0,1.0,84,0.00,,,0.00,0,Wunderground v.1.15,2013-09-14 06:41:00,
2013-09-14 00:47:00,57.2,52.1,29.82,ESE,109,1.0,3.0,83,0.00,,,0.00,0,Wunderground v.1.15,2013-09-14 06:47:00,
2013-09-14 00:53:00,57.3,52.2,29.82,ESE,109,1.0,2.0,83,0.00,,,0.00,0,Wunderground v.1.15,2013-09-14 06:53:00,
2013-09-14 00:58:00,57.5,51.7,29.82,ESE,109,0.0,2.0,81,0.00,,,0.00,0,Wunderground v.1.15,2013-09-14 06:58:00,
2013-09-14 01:04:00,57.8,52.3,29.83,ESE,109,1.0,2.0,82,0.00,,,0.00,0,Wunderground v.1.15,2013-09-14 07:04:00,
2013-09-14 01:10:00,58.0,52.5,29.82,ESE,109,0.0,0.0,82,0.00,,,0.00,0,Wunderground v.1.15,2013-09-14 07:10:00,
2013-09-14 01:15:00,58.1,52.3,29.83,ESE,109,0.0,2.0,81,0.00,,,0.00,0,Wunderground v.1.15,2013-09-14 07:15:00,
2013-09-14 01:21:00,58.1,52.3,29.83,ESE,109,0.0,1.0,81,0.00,,,0.00,0,Wunderground v.1.15,2013-09-14 07:21:00,
2013-09-14 01:27:00,58.0,51.9,29.83,ESE,109,0.0,1.0,80,0.00,,,0.00,0,Wunderground v.1.15,2013-09-14 07:27:00,
2013-09-14 01:32:00,57.8,52.0,29.83,ESE,109,0.0,0.0,81,0.00,,,0.00,0,Wunderground v.1.15,2013-09-14 07:32:00,
2013-09-14 01:38:00,57.7,52.2,29.83,ESE,109,0.0,2.0,82,0.00,,,0.00,0,Wunderground v.1.15,2013-09-14 07:38:00,
2013-09-14 01:44:00,57.6,51.8,29.83,ESE,109,0.0,1.0,81,0.00,,,0.00,0,Wunderground v.1.15,2013-09-14 07:44:00,
2013-09-14 01:50:00,57.5,52.0,29.84,ESE,109,1.0,1.0,82,0.00,,,0.00,0,Wunderground v.1.15,2013-09-14 07:50:00,
2013-09-14 01:56:00,57.4,51.6,29.84,ESE,109,1.0,4.0,81,0.00,,,0.00,0,Wunderground v.1.15,2013-09-14 07:56:00,
2013-09-14 02:02:00,57.4,51.6,29.84,ESE,109,1.0,2.0,81,0.00,,,0.00,0,Wunderground v.1.15,2013-09-14 08:02:00,
2013-09-14 02:08:00,57.3,51.5,29.84,ESE,109,1.0,2.0,81,0.00,,,0.00,0,Wunderground v.1.15,2013-09-14 08:08:00,
2013-09-14 02:14:00,57.3,51.9,29.84,ESE,109,1.0,4.0,82,0.00,,,0.00,0,Wunderground v.1.15,2013-09-14 08:14:00,
2013-09-14 02:20:00,57.2,51.4,29.85,ESE,109,1.0,1.0,81,0.00,,,0.00,0,Wunderground v.1.15,2013-09-14 08:20:00,
2013-09-14 02:26:00,57.2,51.4,29.84,ESE,109,1.0,3.0,81,0.00,,,0.00,0,Wunderground v.1.15,2013-09-14 08:26:00,
2013-09-14 02:32:00,57.1,51.3,29.85,ESE,109,1.0,2.0,81,0.00,,,0.00,0,Wunderground v.1.15,2013-09-14 08:32:00,
2013-09-14 02:38:00,57.0,51.6,29.85,ESE,109,1.0,4.0,82,0.00,,,0.00,0,Wunderground v.1.15,2013-09-14 08:38:00,
2013-09-14 02:44:00,56.9,51.5,29.85,ESE,109,1.0,1.0,82,0.00,,,0.00,0,Wunderground v.1.15,2013-09-14 08:44:00,
2013-09-14 02:50:00,56.7,51.6,29.85,ESE,109,0.0,2.0,83,0.00,,,0.00,0,Wunderground v.1.15,2013-09-14 08:50:00,
2013-09-14 02:56:00,56.5,51.4,29.85,ESE,109,1.0,2.0,83,0.00,,,0.00,0,Wunderground v.1.15,2013-09-14 08:56:00,
2013-09-14 03:02:00,56.4,51.3,29.85,ESE,109,1.0,2.0,83,0.00,,,0.00,0,Wunderground v.1.15,2013-09-14 09:02:00,
2013-09-14 03:08:00,56.3,51.2,29.85,ESE,109,1.0,2.0,83,0.00,,,0.00,0,Wunderground v.1.15,2013-09-14 09:08:00,
2013-09-14 03:14:00,56.3,51.2,29.85,ESE,109,1.0,1.0,83,0.00,,,0.00,0,Wunderground v.1.15,2013-09-14 09:14:00,
2013-09-14 03:20:00,56.3,50.9,29.86,ESE,109,0.0,0.0,82,0.00,,,0.00,0,Wunderground v.1.15,2013-09-14 09:20:00,
2013-09-14 03:26:00,56.4,51.0,29.86,ESE,109,0.0,1.0,82,0.00,,,0.00,0,Wunderground v.1.15,2013-09-14 09:26:00,
2013-09-14 03:32:00,56.4,51.0,29.86,ESE,109,0.0,1.0,82,0.00,,,0.00,0,Wunderground v.1.15,2013-09-14 09:32:00,
2013-09-14 03:38:00,56.4,51.0,29.86,ESE,109,0.0,1.0,82,0.00,,,0.00,0,Wunderground v.1.15,2013-09-14 09:38:00,
2013-09-14 03:44:00,56.4,51.0,29.87,ESE,109,0.0,1.0,82,0.00,,,0.00,0,Wunderground v.1.15,2013-09-14 09:44:00,
2013-09-14 03:50:00,56.4,50.6,29.86,ESE,109,0.0,0.0,81,0.00,,,0.00,0,Wunderground v.1.15,2013-09-14 09:50:00,
2013-09-14 03:56:00,56.6,50.8,29.87,ESE,109,0.0,1.0,81,0.00,,,0.00,0,Wunderground v.1.15,2013-09-14 09:56:00,
2013-09-14 04:02:00,56.7,50.9,29.87,ESE,109,1.0,2.0,81,0.00,,,0.00,0,Wunderground v.1.15,2013-09-14 10:02:00,
2013-09-14 04:08:00,56.6,50.5,29.87,ESE,109,1.0,2.0,80,0.00,,,0.00,0,Wunderground v.1.15,2013-09-14 10:08:00,
2013-09-14 04:14:00,56.6,50.5,29.87,ESE,109,1.0,1.0,80,0.00,,,0.00,0,Wunderground v.1.15,2013-09-14 10:14:00,
2013-09-14 04:20:00,56.4,50.6,29.87,ESE,109,1.0,4.0,81,0.00,,,0.00,0,Wunderground v.1.15,2013-09-14 10:20:00,
2013-09-14 04:26:00,56.3,50.5,29.87,ESE,109,1.0,4.0,81,0.00,,,0.00,0,Wunderground v.1.15,2013-09-14 10:26:00,
2013-09-14 04:32:00,56.2,50.4,29.87,ESE,109,0.0,1.0,81,0.00,,,0.00,0,Wunderground v.1.15,2013-09-14 10:32:00,
2013-09-14 04:38:00,56.2,50.8,29.88,ESE,109,0.0,2.0,82,0.00,,,0.00,0,Wunderground v.1.15,2013-09-14 10:38:00,
2013-09-14 04:44:00,56.1,50.7,29.88,ESE,109,1.0,2.0,82,0.00,,,0.00,0,Wunderground v.1.15,2013-09-14 10:44:00,
2013-09-14 04:50:00,56.1,50.3,29.87,ESE,109,0.0,0.0,81,0.00,,,0.00,0,Wunderground v.1.15,2013-09-14 10:50:00,
2013-09-14 04:56:00,56.0,50.3,29.88,ESE,109,0.0,2.0,81,0.00,,,0.00,0,Wunderground v.1.15,2013-09-14 10:56:00,
2013-09-14 05:02:00,55.9,50.2,29.88,ESE,109,1.0,4.0,81,0.00,,,0.00,0,Wunderground v.1.15,2013-09-14 11:02:00,
2013-09-14 05:07:00,55.8,50.1,29.88,ESE,109,1.0,4.0,81,0.00,,,0.00,0,Wunderground v.1.15,2013-09-14 11:07:00,
2013-09-14 05:13:00,55.7,50.0,29.88,ESE,109,1.0,1.0,81,0.00,,,0.00,0,Wunderground v.1.15,2013-09-14 11:13:00,
2013-09-14 05:19:00,55.5,50.1,29.88,ESE,109,1.0,4.0,82,0.00,,,0.00,0,Wunderground v.1.15,2013-09-14 11:19:00,
2013-09-14 05:25:00,55.5,50.1,29.88,ESE,109,1.0,2.0,82,0.00,,,0.00,0,Wunderground v.1.15,2013-09-14 11:25:00,
2013-09-14 05:31:00,55.4,49.3,29.88,ESE,109,1.0,1.0,80,0.00,,,0.00,0,Wunderground v.1.15,2013-09-14 11:31:00,
2013-09-14 05:36:00,55.4,49.3,29.88,ESE,109,0.0,2.0,80,0.00,,,0.00,0,Wunderground v.1.15,2013-09-14 11:36:00,
2013-09-14 05:42:00,55.3,49.6,29.88,ESE,109,0.0,0.0,81,0.00,,,0.00,0,Wunderground v.1.15,2013-09-14 11:42:00,
2013-09-14 05:48:00,55.3,49.6,29.88,ESE,109,0.0,2.0,81,0.00,,,0.00,0,Wunderground v.1.15,2013-09-14 11:48:00,
2013-09-14 05:54:00,55.2,49.1,29.88,ESE,109,0.0,1.0,80,0.00,,,0.00,0,Wunderground v.1.15,2013-09-14 11:54:00,
2013-09-14 06:00:00,55.2,49.5,29.88,ESE,109,0.0,2.0,81,0.00,,,0.00,0,Wunderground v.1.15,2013-09-14 12:00:00,
2013-09-14 06:06:00,55.2,49.1,29.89,ESE,109,0.0,2.0,80,0.00,,,0.00,0,Wunderground v.1.15,2013-09-14 12:06:00,
2013-09-14 06:12:00,55.2,49.1,29.89,ESE,109,0.0,1.0,80,0.00,,,0.00,0,Wunderground v.1.15,2013-09-14 12:12:00,
2013-09-14 06:18:00,55.1,49.4,29.89,ESE,109,1.0,2.0,81,0.00,,,0.00,0,Wunderground v.1.15,2013-09-14 12:18:00,
2013-09-14 06:24:00,55.0,49.3,29.89,ESE,109,0.0,1.0,81,0.00,,,0.00,0,Wunderground v.1.15,2013-09-14 12:24:00,
2013-09-14 06:30:00,54.9,49.2,29.89,ESE,109,0.0,1.0,81,0.00,,,0.00,0,Wunderground v.1.15,2013-09-14 12:30:00,
2013-09-14 06:36:00,54.8,48.7,29.89,ESE,109,1.0,3.0,80,0.00,,,0.00,0,Wunderground v.1.15,2013-09-14 12:36:00,
2013-09-14 06:42:00,54.5,48.8,29.90,ESE,109,1.0,2.0,81,0.00,,,0.00,0,Wunderground v.1.15,2013-09-14 12:42:00,
2013-09-14 06:48:00,54.4,48.4,29.90,ESE,109,0.0,2.0,80,0.00,,,0.00,0,Wunderground v.1.15,2013-09-14 12:48:00,
2013-09-14 06:54:00,54.3,48.3,29.90,ESE,109,1.0,4.0,80,0.00,,,0.00,0,Wunderground v.1.15,2013-09-14 12:54:00,
2013-09-14 07:00:00,54.2,48.5,29.90,ESE,109,0.0,0.0,81,0.00,,,0.00,0,Wunderground v.1.15,2013-09-14 13:00:00,
2013-09-14 07:06:00,54.1,48.4,29.90,ESE,109,0.0,0.0,81,0.00,,,0.00,0,Wunderground v.1.15,2013-09-14 13:06:00,
2013-09-14 07:12:00,53.9,48.5,29.91,ESE,109,0.0,1.0,82,0.00,,,0.00,0,Wunderground v.1.15,2013-09-14 13:12:00,
2013-09-14 07:17:00,53.7,48.3,29.91,ESE,109,0.0,1.0,82,0.00,,,0.00,0,Wunderground v.1.15,2013-09-14 13:17:00,
2013-09-14 07:23:00,53.5,48.1,29.91,ESE,109,0.0,1.0,82,0.00,,,0.00,7,Wunderground v.1.15,2013-09-14 13:23:00,
2013-09-14 07:29:00,53.3,48.3,29.91,ESE,109,0.0,2.0,83,0.00,,,0.00,11,Wunderground v.1.15,2013-09-14 13:29:00,
2013-09-14 07:35:00,53.1,48.1,29.91,ESE,109,0.0,0.0,83,0.00,,,0.00,14,Wunderground v.1.15,2013-09-14 13:35:00,
2013-09-14 07:41:00,53.0,48.0,29.92,ESE,109,0.0,1.0,83,0.00,,,0.00,21,Wunderground v.1.15,2013-09-14 13:41:00,
2013-09-14 07:46:00,53.0,48.3,29.92,ESE,109,0.0,1.0,84,0.00,,,0.00,26,Wunderground v.1.15,2013-09-14 13:46:00,
2013-09-14 07:52:00,53.0,48.3,29.92,ESE,109,0.0,0.0,84,0.00,,,0.00,32,Wunderground v.1.15,2013-09-14 13:52:00,
2013-09-14 07:58:00,53.0,48.6,29.92,ESE,109,0.0,1.0,85,0.00,,,0.00,37,Wunderground v.1.15,2013-09-14 13:58:00,
2013-09-14 08:03:00,53.1,48.7,29.92,ESE,109,0.0,1.0,85,0.00,,,0.00,40,Wunderground v.1.15,2013-09-14 14:03:00,
2013-09-14 08:09:00,53.2,49.1,29.92,ESE,109,0.0,1.0,86,0.00,,,0.00,47,Wunderground v.1.15,2013-09-14 14:09:00,
2013-09-14 08:15:00,53.4,49.3,29.93,ESE,109,0.0,2.0,86,0.00,,,0.00,51,Wunderground v.1.15,2013-09-14 14:15:00,
2013-09-14 08:20:00,53.6,49.5,29.93,ESE,109,0.0,0.0,86,0.00,,,0.00,56,Wunderground v.1.15,2013-09-14 14:20:00,
2013-09-14 08:26:00,53.8,49.7,29.93,ESE,109,0.0,0.0,86,0.00,,,0.00,60,Wunderground v.1.15,2013-09-14 14:26:00,
2013-09-14 08:31:00,54.0,50.2,29.93,ESE,109,0.0,0.0,87,0.00,,,0.00,69,Wunderground v.1.15,2013-09-14 14:31:00,
2013-09-14 08:36:00,54.2,50.4,29.93,ESE,109,0.0,0.0,87,0.00,,,0.00,72,Wunderground v.1.15,2013-09-14 14:36:00,
2013-09-14 08:42:00,54.5,50.7,29.93,ESE,109,0.0,0.0,87,0.00,,,0.00,77,Wunderground v.1.15,2013-09-14 14:42:00,
2013-09-14 08:48:00,54.8,51.0,29.93,ESE,109,0.0,0.0,87,0.00,,,0.00,81,Wunderground v.1.15,2013-09-14 14:48:00,
2013-09-14 08:54:00,55.0,51.2,29.94,ESE,109,0.0,0.0,87,0.00,,,0.00,90,Wunderground v.1.15,2013-09-14 14:54:00,
2013-09-14 08:59:00,55.3,51.5,29.94,ESE,109,0.0,0.0,87,0.00,,,0.00,102,Wunderground v.1.15,2013-09-14 14:59:00,
2013-09-14 09:05:00,55.7,51.9,29.94,ESE,109,0.0,0.0,87,0.00,,,0.00,118,Wunderground v.1.15,2013-09-14 15:05:00,
2013-09-14 09:11:00,56.0,51.9,29.94,ESE,109,0.0,0.0,86,0.00,,,0.00,127,Wunderground v.1.15,2013-09-14 15:11:00,
2013-09-14 09:17:00,56.5,52.4,29.94,ESE,109,0.0,0.0,86,0.00,,,0.00,148,Wunderground v.1.15,2013-09-14 15:17:00,
2013-09-14 09:22:00,56.8,52.3,29.94,ESE,109,0.0,0.0,85,0.00,,,0.00,158,Wunderground v.1.15,2013-09-14 15:22:00,
2013-09-14 09:28:00,57.2,52.4,29.94,ESE,109,0.0,0.0,84,0.00,,,0.00,186,Wunderground v.1.15,2013-09-14 15:28:00,
2013-09-14 09:33:00,57.5,52.7,29.94,ESE,109,0.0,0.0,84,0.00,,,0.00,197,Wunderground v.1.15,2013-09-14 15:33:00,
2013-09-14 09:39:00,58.1,53.3,29.94,ESE,109,0.0,0.0,84,0.00,,,0.00,227,Wunderground v.1.15,2013-09-14 15:39:00,
2013-09-14 09:44:00,58.6,52.4,29.94,ESE,109,0.0,0.0,80,0.00,,,0.00,255,Wunderground v.1.15,2013-09-14 15:44:00,
2013-09-14 09:50:00,59.0,51.4,29.94,ESE,109,0.0,0.0,76,0.00,,,0.00,274,Wunderground v.1.15,2013-09-14 15:50:00,
2013-09-14 09:55:00,59.7,52.5,29.94,ESE,109,0.0,0.0,77,0.00,,,0.00,285,Wunderground v.1.15,2013-09-14 15:55:00,
2013-09-14 10:01:00,60.6,51.5,29.94,ESE,109,0.0,0.0,72,0.00,,,0.00,297,Wunderground v.1.15,2013-09-14 16:01:00,
2013-09-14 10:07:00,61.6,49.7,29.94,ESE,109,0.0,0.0,65,0.00,,,0.00,292,Wunderground v.1.15,2013-09-14 16:07:00,
2013-09-14 10:13:00,62.9,51.0,29.94,ESE,109,0.0,0.0,65,0.00,,,0.00,294,Wunderground v.1.15,2013-09-14 16:13:00,
2013-09-14 10:18:00,63.7,52.5,29.95,ESE,109,0.0,0.0,67,0.00,,,0.00,302,Wunderground v.1.15,2013-09-14 16:18:00,
2013-09-14 10:24:00,64.5,51.2,29.94,ESE,109,0.0,1.0,62,0.00,,,0.00,309,Wunderground v.1.15,2013-09-14 16:24:00,
2013-09-14 10:30:00,65.4,52.5,29.95,ESE,109,0.0,0.0,63,0.00,,,0.00,339,Wunderground v.1.15,2013-09-14 16:30:00,
2013-09-14 10:36:00,65.9,51.6,29.95,ESE,109,0.0,0.0,60,0.00,,,0.00,339,Wunderground v.1.15,2013-09-14 16:36:00,
2013-09-14 10:41:00,66.3,52.4,29.95,ESE,109,0.0,0.0,61,0.00,,,0.00,343,Wunderground v.1.15,2013-09-14 16:41:00,
2013-09-14 10:47:00,66.7,52.4,29.95,ESE,107,0.0,1.0,60,0.00,,,0.00,387,Wunderground v.1.15,2013-09-14 16:47:00,
2013-09-14 10:53:00,67.2,51.4,29.95,ESE,107,0.0,0.0,57,0.00,,,0.00,390,Wunderground v.1.15,2013-09-14 16:53:00,
2013-09-14 10:59:00,67.6,51.8,29.95,ESE,107,0.0,0.0,57,0.00,,,0.00,425,Wunderground v.1.15,2013-09-14 16:59:00,
2013-09-14 11:05:00,68.1,51.3,29.95,ESE,107,0.0,1.0,55,0.00,,,0.00,438,Wunderground v.1.15,2013-09-14 17:05:00,
2013-09-14 11:11:00,68.6,51.3,29.95,ESE,108,0.0,0.0,54,0.00,,,0.00,457,Wunderground v.1.15,2013-09-14 17:11:00,
2013-09-14 11:17:00,69.0,51.2,29.95,ESE,108,0.0,1.0,53,0.00,,,0.00,512,Wunderground v.1.15,2013-09-14 17:17:00,
2013-09-14 11:23:00,69.5,52.1,29.95,ESE,108,0.0,1.0,54,0.00,,,0.00,497,Wunderground v.1.15,2013-09-14 17:23:00,
2013-09-14 11:29:00,70.0,53.1,29.95,ESE,108,0.0,1.0,55,0.00,,,0.00,540,Wunderground v.1.15,2013-09-14 17:29:00,
2013-09-14 11:35:00,70.6,51.6,29.95,ESE,108,0.0,1.0,51,0.00,,,0.00,559,Wunderground v.1.15,2013-09-14 17:35:00,
2013-09-14 11:40:00,70.9,51.3,29.95,ESE,107,0.0,0.0,50,0.00,,,0.00,563,Wunderground v.1.15,2013-09-14 17:40:00,
2013-09-14 11:46:00,71.3,51.7,29.95,ESE,107,0.0,1.0,50,0.00,,,0.00,580,Wunderground v.1.15,2013-09-14 17:46:00,
2013-09-14 11:51:00,71.9,52.8,29.95,ESE,109,0.0,0.0,51,0.00,,,0.00,603,Wunderground v.1.15,2013-09-14 17:51:00,
2013-09-14 11:57:00,72.6,51.8,29.94,NNE,18,0.0,2.0,48,0.00,,,0.00,592,Wunderground v.1.15,2013-09-14 17:57:00,
2013-09-14 12:03:00,73.2,52.3,29.94,ENE,67,1.0,1.0,48,0.00,,,0.00,631,Wunderground v.1.15,2013-09-14 18:03:00,
2013-09-14 12:09:00,73.9,52.4,29.94,ENE,78,1.0,4.0,47,0.00,,,0.00,619,Wunderground v.1.15,2013-09-14 18:09:00,
2013-09-14 12:15:00,74.5,52.4,29.94,NNE,17,1.0,2.0,46,0.00,,,0.00,612,Wunderground v.1.15,2013-09-14 18:15:00,
2013-09-14 12:20:00,75.1,52.9,29.94,East,80,1.0,2.0,46,0.00,,,0.00,656,Wunderground v.1.15,2013-09-14 18:20:00,
2013-09-14 12:25:00,75.6,53.4,29.94,East,93,2.0,5.0,46,0.00,,,0.00,671,Wunderground v.1.15,2013-09-14 18:25:00,
2013-09-14 12:31:00,76.0,51.9,29.94,NE,34,2.0,2.0,43,0.00,,,0.00,684,Wunderground v.1.15,2013-09-14 18:31:00,
2013-09-14 12:37:00,76.3,51.5,29.94,East,101,3.0,6.0,42,0.00,,,0.00,693,Wunderground v.1.15,2013-09-14 18:37:00,
2013-09-14 12:43:00,76.7,51.2,29.94,ESE,111,2.0,6.0,41,0.00,,,0.00,694,Wunderground v.1.15,2013-09-14 18:43:00,
2013-09-14 12:49:00,77.0,52.1,29.94,ENE,64,2.0,8.0,42,0.00,,,0.00,693,Wunderground v.1.15,2013-09-14 18:49:00,
2013-09-14 12:55:00,77.3,51.8,29.93,ESE,110,3.0,5.0,41,0.00,,,0.00,677,Wunderground v.1.15,2013-09-14 18:55:00,
2013-09-14 13:01:00,77.6,51.4,29.93,ENE,68,2.0,4.0,40,0.00,,,0.00,686,Wunderground v.1.15,2013-09-14 19:01:00,
2013-09-14 13:07:00,78.1,51.1,29.93,NE,42,2.0,6.0,39,0.00,,,0.00,693,Wunderground v.1.15,2013-09-14 19:07:00,
2013-09-14 13:13:00,78.2,51.2,29.93,ENE,72,2.0,3.0,39,0.00,,,0.00,710,Wunderground v.1.15,2013-09-14 19:13:00,
2013-09-14 13:19:00,78.5,51.5,29.93,NE,36,2.0,5.0,39,0.00,,,0.00,666,Wunderground v.1.15,2013-09-14 19:19:00,
2013-09-14 13:25:00,78.7,51.7,29.93,ESE,122,2.0,8.0,39,0.00,,,0.00,717,Wunderground v.1.15,2013-09-14 19:25:00,
2013-09-14 13:31:00,78.7,51.7,29.93,East,82,3.0,3.0,39,0.00,,,0.00,738,Wunderground v.1.15,2013-09-14 19:31:00,
2013-09-14 13:37:00,78.9,51.1,29.93,ENE,78,2.0,3.0,38,0.00,,,0.00,712,Wunderground v.1.15,2013-09-14 19:37:00,
2013-09-14 13:43:00,79.1,52.0,29.93,East,79,2.0,4.0,39,0.00,,,0.00,733,Wunderground v.1.15,2013-09-14 19:43:00,
2013-09-14 13:49:00,79.5,51.7,29.93,NNE,17,1.0,4.0,38,0.00,,,0.00,703,Wunderground v.1.15,2013-09-14 19:49:00,
2013-09-14 13:55:00,79.7,51.1,29.93,NE,51,2.0,4.0,37,0.00,,,0.00,657,Wunderground v.1.15,2013-09-14 19:55:00,
2013-09-14 14:01:00,79.9,51.3,29.92,North,355,1.0,2.0,37,0.00,,,0.00,686,Wunderground v.1.15,2013-09-14 20:01:00,
2013-09-14 14:06:00,80.1,52.2,29.92,ESE,113,1.0,2.0,38,0.00,,,0.00,619,Wunderground v.1.15,2013-09-14 20:06:00,
2013-09-14 14:12:00,80.2,50.8,29.92,ENE,77,2.0,5.0,36,0.00,,,0.00,712,Wunderground v.1.15,2013-09-14 20:12:00,
2013-09-14 14:18:00,80.1,51.5,29.92,ESE,123,3.0,5.0,37,0.00,,,0.00,710,Wunderground v.1.15,2013-09-14 20:18:00,
2013-09-14 14:24:00,80.2,51.6,29.92,ESE,105,3.0,7.0,37,0.00,,,0.00,719,Wunderground v.1.15,2013-09-14 20:24:00,
2013-09-14 14:29:00,80.5,51.1,29.92,NNE,21,3.0,7.0,36,0.00,,,0.00,693,Wunderground v.1.15,2013-09-14 20:29:00,
2013-09-14 14:35:00,80.5,52.6,29.92,ENE,75,2.0,5.0,38,0.00,,,0.00,701,Wunderground v.1.15,2013-09-14 20:35:00,
2013-09-14 14:41:00,80.7,52.7,29.91,NE,36,1.0,2.0,38,0.00,,,0.00,708,Wunderground v.1.15,2013-09-14 20:41:00,
2013-09-14 14:46:00,80.2,50.8,29.92,East,84,1.0,4.0,36,0.00,,,0.00,647,Wunderground v.1.15,2013-09-14 20:46:00,
2013-09-14 14:52:00,80.2,51.6,29.91,ENE,61,1.0,4.0,37,0.00,,,0.00,679,Wunderground v.1.15,2013-09-14 20:52:00,
2013-09-14 14:58:00,80.0,52.1,29.91,ESE,106,1.0,5.0,38,0.00,,,0.00,591,Wunderground v.1.15,2013-09-14 20:58:00,
2013-09-14 15:04:00,80.0,50.6,29.91,ENE,76,1.0,2.0,36,0.00,,,0.00,598,Wunderground v.1.15,2013-09-14 21:04:00,
2013-09-14 15:10:00,80.1,50.7,29.91,East,87,1.0,5.0,36,0.00,,,0.00,598,Wunderground v.1.15,2013-09-14 21:10:00,
2013-09-14 15:15:00,80.1,50.0,29.91,NE,42,2.0,5.0,35,0.00,,,0.00,561,Wunderground v.1.15,2013-09-14 21:15:00,
2013-09-14 15:21:00,80.2,50.1,29.90,East,94,2.0,3.0,35,0.00,,,0.00,520,Wunderground v.1.15,2013-09-14 21:21:00,
2013-09-14 15:27:00,80.3,50.1,29.90,ENE,70,3.0,6.0,35,0.00,,,0.00,469,Wunderground v.1.15,2013-09-14 21:27:00,
2013-09-14 15:33:00,80.3,50.1,29.90,WNW,291,2.0,3.0,35,0.00,,,0.00,476,Wunderground v.1.15,2013-09-14 21:33:00,
2013-09-14 15:38:00,80.4,50.2,29.90,ESE,123,2.0,3.0,35,0.00,,,0.00,524,Wunderground v.1.15,2013-09-14 21:38:00,
2013-09-14 15:44:00,80.6,51.2,29.90,NE,51,2.0,5.0,36,0.00,,,0.00,526,Wunderground v.1.15,2013-09-14 21:44:00,
2013-09-14 15:50:00,80.6,50.4,29.90,SE,142,2.0,2.0,35,0.00,,,0.00,517,Wunderground v.1.15,2013-09-14 21:50:00,
2013-09-14 15:56:00,80.6,50.4,29.90,NNE,22,2.0,3.0,35,0.00,,,0.00,503,Wunderground v.1.15,2013-09-14 21:56:00,
2013-09-14 16:01:00,80.7,50.5,29.90,NNE,28,1.0,5.0,35,0.00,,,0.00,487,Wunderground v.1.15,2013-09-14 22:01:00,
2013-09-14 16:07:00,80.6,50.4,29.90,ESE,122,2.0,5.0,35,0.00,,,0.00,301,Wunderground v.1.15,2013-09-14 22:07:00,
2013-09-14 16:13:00,80.5,50.3,29.90,NE,42,2.0,6.0,35,0.00,,,0.00,246,Wunderground v.1.15,2013-09-14 22:13:00,
2013-09-14 16:19:00,80.3,50.9,29.90,East,82,2.0,7.0,36,0.00,,,0.00,81,Wunderground v.1.15,2013-09-14 22:19:00,
2013-09-14 16:25:00,80.0,51.4,29.90,ENE,74,3.0,4.0,37,0.00,,,0.00,169,Wunderground v.1.15,2013-09-14 22:25:00,
2013-09-14 16:31:00,79.8,49.7,29.90,East,92,3.0,3.0,35,0.00,,,0.00,118,Wunderground v.1.15,2013-09-14 22:31:00,
2013-09-14 16:36:00,79.5,50.2,29.90,SSW,213,3.0,4.0,36,0.00,,,0.00,181,Wunderground v.1.15,2013-09-14 22:36:00,
2013-09-14 16:42:00,79.4,50.9,29.90,SE,130,2.0,4.0,37,0.00,,,0.00,107,Wunderground v.1.15,2013-09-14 22:42:00,
2013-09-14 16:48:00,79.3,50.8,29.89,WNW,291,1.0,4.0,37,0.00,,,0.00,281,Wunderground v.1.15,2013-09-14 22:48:00,
2013-09-14 16:54:00,79.2,49.9,29.89,NE,38,1.0,2.0,36,0.00,,,0.00,366,Wunderground v.1.15,2013-09-14 22:54:00,
2013-09-14 17:00:00,79.1,49.8,29.89,ENE,75,2.0,2.0,36,0.00,,,0.00,346,Wunderground v.1.15,2013-09-14 23:00:00,
2013-09-14 17:06:00,79.0,51.2,29.90,East,101,2.0,6.0,38,0.00,,,0.00,320,Wunderground v.1.15,2013-09-14 23:06:00,
2013-09-14 17:09:00,79.0,51.2,29.89,East,86,2.0,6.0,38,0.00,,,0.00,315,Wunderground v.1.15,2013-09-14 23:09:00,
2013-09-14 17:15:00,78.8,50.3,29.90,ESE,102,2.0,5.0,37,0.00,,,0.00,301,Wunderground v.1.15,2013-09-14 23:15:00,
2013-09-14 17:21:00,78.7,51.0,29.89,South,188,1.0,1.0,38,0.00,,,0.00,116,Wunderground v.1.15,2013-09-14 23:21:00,
2013-09-14 17:26:00,78.7,51.0,29.89,NE,48,1.0,7.0,38,0.00,,,0.00,72,Wunderground v.1.15,2013-09-14 23:26:00,
2013-09-14 17:32:00,78.5,50.8,29.90,NNE,30,2.0,6.0,38,0.00,,,0.00,114,Wunderground v.1.15,2013-09-14 23:32:00,
2013-09-14 17:38:00,78.2,49.8,29.90,ENE,77,1.0,6.0,37,0.00,,,0.00,111,Wunderground v.1.15,2013-09-14 23:38:00,
2013-09-14 17:44:00,78.0,50.3,29.90,ESE,103,1.0,3.0,38,0.00,,,0.00,227,Wunderground v.1.15,2013-09-14 23:44:00,
2013-09-14 17:50:00,78.0,49.6,29.90,NE,53,1.0,1.0,37,0.00,,,0.00,220,Wunderground v.1.15,2013-09-14 23:50:00,
2013-09-14 17:56:00,77.9,50.2,29.89,East,94,0.0,7.0,38,0.00,,,0.00,105,Wunderground v.1.15,2013-09-14 23:56:00,
2013-09-14 18:02:00,77.6,50.0,29.89,WNW,294,2.0,2.0,38,0.00,,,0.00,148,Wunderground v.1.15,2013-09-15 00:02:00,
2013-09-14 18:08:00,77.3,50.4,29.89,SE,132,1.0,2.0,39,0.00,,,0.00,132,Wunderground v.1.15,2013-09-15 00:08:00,
2013-09-14 18:14:00,77.1,50.2,29.89,East,98,0.0,2.0,39,0.00,,,0.00,63,Wunderground v.1.15,2013-09-15 00:14:00,
2013-09-14 18:19:00,76.9,51.4,29.89,East,100,0.0,2.0,41,0.00,,,0.00,47,Wunderground v.1.15,2013-09-15 00:19:00,
2013-09-14 18:25:00,76.5,49.7,29.89,ENE,68,0.0,2.0,39,0.00,,,0.00,46,Wunderground v.1.15,2013-09-15 00:25:00,
2013-09-14 18:31:00,76.1,50.0,29.89,NNE,19,1.0,1.0,40,0.00,,,0.00,54,Wunderground v.1.15,2013-09-15 00:31:00,
2013-09-14 18:37:00,75.7,49.7,29.89,SSE,156,0.0,2.0,40,0.00,,,0.00,37,Wunderground v.1.15,2013-09-15 00:37:00,
2013-09-14 18:43:00,75.3,50.0,29.89,NW,305,1.0,1.0,41,0.00,,,0.00,32,Wunderground v.1.15,2013-09-15 00:43:00,
2013-09-14 18:49:00,74.9,50.3,29.89,East,94,1.0,2.0,42,0.00,,,0.00,26,Wunderground v.1.15,2013-09-15 00:49:00,
2013-09-14 18:55:00,74.5,51.2,29.89,ESE,102,1.0,1.0,44,0.00,,,0.00,23,Wunderground v.1.15,2013-09-15 00:55:00,
2013-09-14 19:01:00,74.0,50.7,29.89,SE,130,0.0,0.0,44,0.00,,,0.00,21,Wunderground v.1.15,2013-09-15 01:01:00,
2013-09-14 19:07:00,73.7,52.8,29.89,SE,130,0.0,0.0,48,0.00,,,0.00,19,Wunderground v.1.15,2013-09-15 01:07:00,
2013-09-14 19:13:00,72.6,53.4,29.89,SW,229,0.0,2.0,51,0.00,,,0.00,14,Wunderground v.1.15,2013-09-15 01:13:00,
2013-09-14 19:19:00,71.6,53.0,29.89,SW,229,0.0,2.0,52,0.00,,,0.00,11,Wunderground v.1.15,2013-09-15 01:19:00,
2013-09-14 19:25:00,70.3,53.9,29.88,WSW,248,1.0,3.0,56,0.00,,,0.00,9,Wunderground v.1.15,2013-09-15 01:25:00,
2013-09-14 19:31:00,69.1,53.2,29.89,WSW,248,0.0,1.0,57,0.00,,,0.00,7,Wunderground v.1.15,2013-09-15 01:31:00,
2013-09-14 19:37:00,67.6,53.2,29.89,WSW,248,1.0,2.0,60,0.00,,,0.00,5,Wunderground v.1.15,2013-09-15 01:37:00,
2013-09-14 19:42:00,66.5,52.2,29.89,WSW,248,1.0,1.0,60,0.00,,,0.00,0,Wunderground v.1.15,2013-09-15 01:42:00,
2013-09-14 19:48:00,65.3,51.9,29.89,WSW,248,1.0,2.0,62,0.00,,,0.00,0,Wunderground v.1.15,2013-09-15 01:48:00,
2013-09-14 19:54:00,64.4,52.0,29.90,WSW,248,1.0,2.0,64,0.00,,,0.00,0,Wunderground v.1.15,2013-09-15 01:54:00,
2013-09-14 20:00:00,63.4,51.4,29.90,WSW,248,2.0,2.0,65,0.00,,,0.00,0,Wunderground v.1.15,2013-09-15 02:00:00,
2013-09-14 20:06:00,62.7,51.6,29.90,West,267,1.0,3.0,67,0.00,,,0.00,0,Wunderground v.1.15,2013-09-15 02:06:00,
2013-09-14 20:12:00,62.1,51.4,29.90,West,267,2.0,2.0,68,0.00,,,0.00,0,Wunderground v.1.15,2013-09-15 02:12:00,
2013-09-14 20:18:00,61.7,51.8,29.90,West,267,1.0,2.0,70,0.00,,,0.00,0,Wunderground v.1.15,2013-09-15 02:18:00,
2013-09-14 20:24:00,61.3,51.0,29.91,West,267,0.0,1.0,69,0.00,,,0.00,0,Wunderground v.1.15,2013-09-15 02:24:00,
2013-09-14 20:29:00,60.9,51.0,29.91,West,267,1.0,4.0,70,0.00,,,0.00,0,Wunderground v.1.15,2013-09-15 02:29:00,
2013-09-14 20:35:00,60.5,50.7,29.91,West,267,2.0,3.0,70,0.00,,,0.00,0,Wunderground v.1.15,2013-09-15 02:35:00,
2013-09-14 20:41:00,60.2,50.8,29.91,West,267,2.0,2.0,71,0.00,,,0.00,0,Wunderground v.1.15,2013-09-15 02:41:00,
2013-09-14 20:46:00,59.9,50.5,29.91,West,267,1.0,2.0,71,0.00,,,0.00,0,Wunderground v.1.15,2013-09-15 02:46:00,
2013-09-14 20:52:00,59.6,49.4,29.91,West,275,1.0,2.0,69,0.00,,,0.00,0,Wunderground v.1.15,2013-09-15 02:52:00,
2013-09-14 20:57:00,59.5,49.7,29.91,West,275,1.0,3.0,70,0.00,,,0.00,0,Wunderground v.1.15,2013-09-15 02:57:00,
2013-09-14 21:03:00,59.3,49.1,29.91,West,281,1.0,2.0,69,0.00,,,0.00,0,Wunderground v.1.15,2013-09-15 03:03:00,
2013-09-14 21:09:00,59.6,48.6,29.91,WNW,284,2.0,5.0,67,0.00,,,0.00,0,Wunderground v.1.15,2013-09-15 03:09:00,
2013-09-14 21:15:00,60.6,47.5,29.92,South,175,2.0,4.0,62,0.00,,,0.00,0,Wunderground v.1.15,2013-09-15 03:15:00,
2013-09-14 21:21:00,61.8,47.3,29.92,SW,227,2.0,3.0,59,0.00,,,0.00,0,Wunderground v.1.15,2013-09-15 03:21:00,
2013-09-14 21:26:00,62.9,48.8,29.92,WSW,246,1.0,6.0,60,0.00,,,0.00,0,Wunderground v.1.15,2013-09-15 03:26:00,
2013-09-14 21:32:00,63.8,48.7,29.93,North,350,1.0,4.0,58,0.00,,,0.00,0,Wunderground v.1.15,2013-09-15 03:32:00,
2013-09-14 21:37:00,64.3,48.7,29.93,ENE,68,1.0,4.0,57,0.00,,,0.00,0,Wunderground v.1.15,2013-09-15 03:37:00,
2013-09-14 21:43:00,64.8,48.2,29.93,West,263,1.0,2.0,55,0.00,,,0.00,0,Wunderground v.1.15,2013-09-15 03:43:00,
2013-09-14 21:49:00,65.0,49.4,29.93,West,266,1.0,4.0,57,0.00,,,0.00,0,Wunderground v.1.15,2013-09-15 03:49:00,
2013-09-14 21:55:00,64.7,49.1,29.93,West,275,1.0,4.0,57,0.00,,,0.00,0,Wunderground v.1.15,2013-09-15 03:55:00,
2013-09-14 22:01:00,64.3,49.2,29.93,West,275,1.0,1.0,58,0.00,,,0.00,0,Wunderground v.1.15,2013-09-15 04:01:00,
2013-09-14 22:03:00,64.1,49.5,29.93,West,275,1.0,1.0,59,0.00,,,0.00,0,Wunderground v.1.15,2013-09-15 04:03:00,
2013-09-14 22:04:00,64.1,49.5,29.93,West,275,1.0,1.0,59,0.00,,,0.00,0,Wunderground v.1.15,2013-09-15 04:04:00,
2013-09-14 22:08:00,63.7,49.1,29.94,West,275,0.0,2.0,59,0.00,,,0.00,0,Wunderground v.1.15,2013-09-15 04:08:00,
2013-09-14 22:10:00,63.5,48.9,29.93,West,275,1.0,3.0,59,0.00,,,0.00,0,Wunderground v.1.15,2013-09-15 04:10:00,
2013-09-14 22:16:00,63.1,49.0,29.93,West,275,1.0,3.0,60,0.00,,,0.00,0,Wunderground v.1.15,2013-09-15 04:16:00,
2013-09-14 22:22:00,62.6,49.4,29.94,West,275,1.0,4.0,62,0.00,,,0.00,0,Wunderground v.1.15,2013-09-15 04:22:00,
2013-09-14 22:26:00,62.3,49.5,29.94,West,275,1.0,4.0,63,0.00,,,0.00,0,Wunderground v.1.15,2013-09-15 04:26:00,
2013-09-14 22:32:00,61.9,49.6,29.94,West,275,0.0,1.0,64,0.00,,,0.00,0,Wunderground v.1.15,2013-09-15 04:32:00,
2013-09-14 22:37:00,61.5,49.6,29.94,West,275,0.0,2.0,65,0.00,,,0.00,0,Wunderground v.1.15,2013-09-15 04:37:00,
2013-09-14 22:42:00,61.2,49.7,29.94,West,275,0.0,1.0,66,0.00,,,0.00,0,Wunderground v.1.15,2013-09-15 04:42:00,
2013-09-14 22:48:00,60.9,49.5,29.94,West,275,0.0,2.0,66,0.00,,,0.00,0,Wunderground v.1.15,2013-09-15 04:48:00,
2013-09-14 22:54:00,60.7,49.7,29.95,West,275,1.0,1.0,67,0.00,,,0.00,0,Wunderground v.1.15,2013-09-15 04:54:00,
2013-09-14 23:00:00,60.4,49.8,29.95,West,275,1.0,1.0,68,0.00,,,0.00,0,Wunderground v.1.15,2013-09-15 05:00:00,
2013-09-14 23:06:00,60.3,50.1,29.95,West,275,0.0,1.0,69,0.00,,,0.00,0,Wunderground v.1.15,2013-09-15 05:06:00,
2013-09-14 23:12:00,60.0,49.8,29.95,West,275,0.0,0.0,69,0.00,,,0.00,0,Wunderground v.1.15,2013-09-15 05:12:00,
2013-09-14 23:18:00,59.8,50.0,29.95,West,275,0.0,0.0,70,0.00,,,0.00,0,Wunderground v.1.15,2013-09-15 05:18:00,
2013-09-14 23:24:00,59.6,49.8,29.95,West,275,0.0,0.0,70,0.00,,,0.00,0,Wunderground v.1.15,2013-09-15 05:24:00,
2013-09-14 23:30:00,59.3,50.3,29.95,West,275,0.0,0.0,72,0.00,,,0.00,0,Wunderground v.1.15,2013-09-15 05:30:00,
2013-09-14 23:36:00,59.0,50.0,29.95,West,275,0.0,0.0,72,0.00,,,0.00,0,Wunderground v.1.15,2013-09-15 05:36:00,
2013-09-14 23:42:00,59.0,50.7,29.95,West,275,0.0,1.0,74,0.00,,,0.00,0,Wunderground v.1.15,2013-09-15 05:42:00,
2013-09-14 23:48:00,58.5,50.2,29.95,West,275,0.0,1.0,74,0.00,,,0.00,0,Wunderground v.1.15,2013-09-15 05:48:00,
2013-09-14 23:54:00,58.0,50.1,29.95,West,275,0.0,1.0,75,0.00,,,0.00,0,Wunderground v.1.15,2013-09-15 05:54:00,